Location: Baix
(44.7118°N, 4.7648°E)
Time: 22:44:11
(UTC+00:00)

Vanguard 2 - All Passes

Search period start: 25 November 2020 00:00
Search period end: 05 December 2020 00:00
Orbit: 554 x 2937 km, 32.9° (Epoch: 25 November)

Date Brightness Start Highest point End Pass type
(mag) Time Alt. Az. Time Alt. Az. Time Alt. Az.
25 Nov - 11:26:27 10° SSW 11:28:36 14° S 11:30:42 10° SE daylight
25 Nov - 13:33:23 10° SW 13:36:01 17° S 13:38:59 10° SE daylight
25 Nov - 15:42:50 10° SSW 15:43:45 10° SSW 15:44:45 10° S daylight
26 Nov - 11:43:42 10° SSW 11:46:12 16° S 11:48:40 10° SE daylight
26 Nov - 13:51:22 10° SW 13:53:40 14° S 13:56:12 10° SSE daylight
27 Nov - 09:54:28 10° S 09:56:18 12° SSE 09:58:00 10° SE daylight
27 Nov - 12:01:12 10° SW 12:03:49 16° S 12:06:23 10° SE daylight
27 Nov - 14:09:48 10° SSW 14:11:17 12° SSW 14:12:53 10° S daylight
28 Nov - 10:11:10 10° SSW 10:13:57 15° S 10:16:24 10° SE daylight
28 Nov - 12:18:55 10° SW 12:21:26 16° S 12:23:55 10° SSE daylight
29 Nov - 08:22:07 10° S 08:23:47 11° SSE 08:25:18 10° SSE daylight
29 Nov - 10:28:22 10° SW 10:31:35 17° S 10:34:23 10° SE daylight
29 Nov - 12:36:51 10° SW 12:39:01 14° S 12:41:11 10° SSE daylight
30 Nov - 08:37:59 10° SSW 08:41:29 15° SSE 08:44:22 10° SE daylight
30 Nov - 10:45:50 10° SW 10:49:13 18° S 10:52:08 10° SE daylight
30 Nov - 12:55:13 10° SW 12:56:36 11° SSW 12:57:58 10° S daylight
01 Dec - 08:54:49 10° SW 08:59:11 18° S 09:02:36 10° SE daylight
01 Dec - 11:03:29 10° SW 11:06:50 18° S 11:09:44 10° SE daylight
02 Dec - 07:04:30 10° SSW 07:08:40 14° SSE 07:12:04 10° SE daylight
02 Dec - 09:12:01 10° SW 09:16:52 21° S 09:20:33 10° SE daylight
02 Dec - 11:21:19 10° SW 11:24:25 17° SSW 11:27:08 10° SSE daylight
03 Dec - 07:20:44 10° SSW 07:26:25 19° SSE 07:30:41 10° SE daylight
03 Dec - 09:29:28 10° SW 09:34:32 23° S 09:38:19 10° SE daylight
03 Dec - 11:39:23 10° SW 11:41:57 15° SSW 11:44:17 10° SSE daylight
04 Dec - 05:31:23 10° S 05:35:23 13° SSE 05:38:48 10° SE visible
04 Dec - 07:37:33 10° SW 07:44:09 23° S 07:48:51 10° ESE daylight
04 Dec - 09:47:05 10° WSW 09:52:10 24° S 09:55:57 10° SE daylight
04 Dec - 11:57:56 10° SW 11:59:27 11° SSW 12:00:52 10° S daylight
